User: anonymous   Login
Location: Maiden
(35.5760°N, 81.2120°W)
Time: 14:58:29
(UTC-04:00)
Language:

Cosmos 2151 - Orbit

View from above orbital plane
View from above orbital plane
View from above satellite
View from above satellite

Ground track
Ground track

The orbit data is extracted from the following two-line orbital elements,

1 21422U 91042A   16178.21982224  .00000163  00000-0  13625-4 0  9991
2 21422  82.5003 225.1390 0015459  47.8107 312.4422 14.91647290355435
Epoch (UTC): 26 June 2016 05:16:32
Eccentricity: 0.0015459
inclination: 82.5003°
perigee height: 582 km
apogee height: 603 km
right ascension of ascending node: 225.1390°
argument of perigee: 47.8107°
revolutions per day: 14.91647290
mean anomaly at epoch: 312.4422°
orbit number at epoch: 35543

The dashed part of the orbit path shows where the satellite is in the earth's shadow,  

DLR